Time,TemperatureF,DewpointF,PressureIn,WindDirection,WindDirectionDegrees,WindSpeedMPH,WindSpeedGustMPH,Humidity,HourlyPrecipIn,Conditions,Clouds,dailyrainin,SoftwareType,DateUTC
2013-04-02 00:03:00,33.0,14.0,-100.00,ENE,72,0.0,0.0,45,0.00,,,-99.99,,2013-04-02 04:03:00,
2013-04-02 00:13:00,32.0,14.0,-100.00,ENE,72,0.0,0.0,45,0.00,,,-99.99,,2013-04-02 04:13:00,
2013-04-02 00:23:00,32.0,14.0,-100.00,ENE,72,0.0,0.0,46,0.00,,,-99.99,,2013-04-02 04:23:00,
2013-04-02 00:33:00,32.0,14.0,-100.00,ENE,72,0.0,0.0,46,0.00,,,-99.99,,2013-04-02 04:33:00,
2013-04-02 00:43:00,32.0,14.0,-100.00,ENE,72,0.0,0.0,45,0.00,,,-99.99,,2013-04-02 04:43:00,
2013-04-02 00:53:00,31.0,14.0,-100.00,ENE,72,0.0,0.0,46,0.00,,,-99.99,,2013-04-02 04:53:00,
2013-04-02 01:02:00,30.0,14.0,-100.00,ENE,72,0.0,0.0,47,0.00,,,-99.99,,2013-04-02 05:02:00,
2013-04-02 01:12:00,31.0,12.0,-100.00,ENE,72,0.0,0.0,45,0.00,,,-99.99,,2013-04-02 05:12:00,
2013-04-02 01:22:00,31.0,12.0,-100.00,ENE,72,0.0,0.0,45,0.00,,,-99.99,,2013-04-02 05:22:00,
2013-04-02 01:32:00,31.0,12.0,-100.00,ENE,72,0.0,0.0,45,0.00,,,-99.99,,2013-04-02 05:32:00,
2013-04-02 01:43:00,30.0,12.0,-100.00,ENE,72,0.0,0.0,46,0.00,,,-99.99,,2013-04-02 05:43:00,
2013-04-02 01:52:00,29.0,12.0,-100.00,ENE,72,0.0,0.0,47,0.00,,,-99.99,,2013-04-02 05:52:00,
2013-04-02 02:02:00,30.0,12.0,-100.00,ENE,72,0.0,0.0,47,0.00,,,-99.99,,2013-04-02 06:02:00,
2013-04-02 02:12:00,29.0,12.0,-100.00,ENE,72,0.0,0.0,46,0.00,,,-99.99,,2013-04-02 06:12:00,
2013-04-02 02:22:00,29.0,12.0,-100.00,ENE,72,0.0,0.0,47,0.00,,,-99.99,,2013-04-02 06:22:00,
2013-04-02 02:32:00,29.0,12.0,-100.00,ENE,72,0.0,0.0,47,0.00,,,-99.99,,2013-04-02 06:32:00,
2013-04-02 02:42:00,28.0,12.0,-100.00,ENE,72,0.0,0.0,49,0.00,,,-99.99,,2013-04-02 06:42:00,
2013-04-02 02:52:00,29.0,12.0,-100.00,ENE,72,0.0,0.0,49,0.00,,,-99.99,,2013-04-02 06:52:00,
2013-04-02 03:02:00,28.0,12.0,-100.00,ENE,72,0.0,0.0,50,0.00,,,-99.99,,2013-04-02 07:02:00,
2013-04-02 03:13:00,28.0,12.0,-100.00,ENE,72,0.0,0.0,50,0.00,,,-99.99,,2013-04-02 07:13:00,
2013-04-02 03:22:00,27.0,12.0,-100.00,ENE,72,0.0,0.0,51,0.00,,,-99.99,,2013-04-02 07:22:00,
2013-04-02 03:32:00,27.0,12.0,-100.00,ENE,72,0.0,0.0,51,0.00,,,-99.99,,2013-04-02 07:32:00,
2013-04-02 03:43:00,27.0,12.0,-100.00,ENE,72,0.0,0.0,51,0.00,,,-99.99,,2013-04-02 07:43:00,
2013-04-02 03:52:00,27.0,12.0,-100.00,ENE,72,0.0,0.0,51,0.00,,,-99.99,,2013-04-02 07:52:00,
2013-04-02 04:02:00,27.0,12.0,-100.00,ENE,72,0.0,0.0,51,0.00,,,-99.99,,2013-04-02 08:02:00,
2013-04-02 04:13:00,27.0,12.0,-100.00,ENE,72,0.0,0.0,50,0.00,,,-99.99,,2013-04-02 08:13:00,
2013-04-02 04:22:00,27.0,12.0,-100.00,ENE,72,0.0,0.0,50,0.00,,,-99.99,,2013-04-02 08:22:00,
2013-04-02 04:32:00,27.0,12.0,-100.00,ENE,72,0.0,0.0,50,0.00,,,-99.99,,2013-04-02 08:32:00,
2013-04-02 04:42:00,26.0,10.0,-100.00,ENE,72,0.0,0.0,50,0.00,,,-99.99,,2013-04-02 08:42:00,
2013-04-02 04:52:00,26.0,12.0,-100.00,ENE,72,0.0,0.0,51,0.00,,,-99.99,,2013-04-02 08:52:00,
2013-04-02 05:02:00,26.0,12.0,-100.00,ENE,72,0.0,0.0,51,0.00,,,-99.99,,2013-04-02 09:02:00,
2013-04-02 05:13:00,27.0,12.0,-100.00,ENE,72,0.0,0.0,51,0.00,,,-99.99,,2013-04-02 09:13:00,
2013-04-02 05:22:00,26.0,12.0,-100.00,ENE,72,0.0,0.0,53,0.00,,,-99.99,,2013-04-02 09:22:00,
2013-04-02 05:32:00,25.0,12.0,-100.00,ENE,72,0.0,0.0,54,0.00,,,-99.99,,2013-04-02 09:32:00,
2013-04-02 05:43:00,25.0,12.0,-100.00,ENE,72,0.0,0.0,56,0.00,,,-99.99,,2013-04-02 09:43:00,
2013-04-02 05:52:00,24.0,12.0,-100.00,ENE,72,0.0,0.0,55,0.00,,,-99.99,,2013-04-02 09:52:00,
2013-04-02 06:03:00,24.0,12.0,-100.00,ENE,72,0.0,0.0,59,0.00,,,-99.99,,2013-04-02 10:03:00,
2013-04-02 06:13:00,24.0,12.0,-100.00,ENE,72,0.0,0.0,55,0.00,,,-99.99,,2013-04-02 10:13:00,
2013-04-02 06:24:00,25.0,12.0,-100.00,ENE,72,0.0,0.0,55,0.00,,,-99.99,,2013-04-02 10:24:00,
2013-04-02 06:33:00,24.0,12.0,-100.00,ENE,72,0.0,0.0,55,0.00,,,-99.99,,2013-04-02 10:33:00,
2013-04-02 06:42:00,24.0,12.0,-100.00,ENE,72,0.0,0.0,56,0.00,,,-99.99,,2013-04-02 10:42:00,
2013-04-02 06:52:00,24.0,12.0,-100.00,ENE,72,0.0,0.0,56,0.00,,,-99.99,,2013-04-02 10:52:00,
2013-04-02 07:02:00,24.0,12.0,-100.00,ENE,72,0.0,0.0,56,0.00,,,-99.99,,2013-04-02 11:02:00,
2013-04-02 07:12:00,24.0,12.0,-100.00,ENE,72,0.0,0.0,58,0.00,,,-99.99,,2013-04-02 11:12:00,
2013-04-02 07:23:00,23.0,12.0,-100.00,ENE,72,0.0,0.0,58,0.00,,,-99.99,,2013-04-02 11:23:00,
2013-04-02 07:33:00,24.0,10.0,-100.00,ENE,72,0.0,0.0,55,0.00,,,-99.99,,2013-04-02 11:33:00,
2013-04-02 07:43:00,23.0,12.0,-100.00,ENE,72,0.0,0.0,59,0.00,,,-99.99,,2013-04-02 11:43:00,
2013-04-02 07:52:00,24.0,10.0,-100.00,ENE,72,0.0,0.0,55,0.00,,,-99.99,,2013-04-02 11:52:00,
2013-04-02 08:02:00,24.0,12.0,-100.00,ENE,72,0.0,0.0,56,0.00,,,-99.99,,2013-04-02 12:02:00,
2013-04-02 08:12:00,24.0,12.0,-100.00,ENE,72,0.0,0.0,56,0.00,,,-99.99,,2013-04-02 12:12:00,
2013-04-02 08:23:00,25.0,12.0,-100.00,ENE,72,0.0,0.0,55,0.00,,,-99.99,,2013-04-02 12:23:00,
2013-04-02 08:32:00,25.0,12.0,-100.00,ENE,72,0.0,0.0,56,0.00,,,-99.99,,2013-04-02 12:32:00,
2013-04-02 08:42:00,25.0,12.0,-100.00,ENE,72,0.0,0.0,56,0.00,,,-99.99,,2013-04-02 12:42:00,
2013-04-02 08:52:00,26.0,14.0,-100.00,ENE,72,0.0,0.0,58,0.00,,,-99.99,,2013-04-02 12:52:00,
2013-04-02 09:02:00,27.0,14.0,-100.00,ENE,72,0.0,0.0,56,0.00,,,-99.99,,2013-04-02 13:02:00,
2013-04-02 09:12:00,28.0,16.0,-100.00,ENE,72,0.0,0.0,58,0.00,,,-99.99,,2013-04-02 13:12:00,
2013-04-02 09:23:00,28.0,16.0,-100.00,ENE,72,0.0,0.0,55,0.00,,,-99.99,,2013-04-02 13:23:00,
2013-04-02 09:33:00,29.0,12.0,-100.00,ENE,72,0.0,0.0,49,0.00,,,-99.99,,2013-04-02 13:33:00,
2013-04-02 09:42:00,29.0,12.0,-100.00,ENE,72,0.0,0.0,47,0.00,,,-99.99,,2013-04-02 13:42:00,
2013-04-02 09:52:00,29.0,16.0,-100.00,ENE,72,0.0,0.0,53,0.00,,,-99.99,,2013-04-02 13:52:00,
2013-04-02 10:02:00,31.0,16.0,-100.00,ENE,72,0.0,0.0,50,0.00,,,-99.99,,2013-04-02 14:02:00,
2013-04-02 10:12:00,30.0,14.0,-100.00,ENE,72,0.0,0.0,47,0.00,,,-99.99,,2013-04-02 14:12:00,
2013-04-02 10:23:00,31.0,14.0,-100.00,ENE,72,0.0,0.0,47,0.00,,,-99.99,,2013-04-02 14:23:00,
2013-04-02 10:32:00,31.0,14.0,-100.00,ENE,72,0.0,0.0,46,0.00,,,-99.99,,2013-04-02 14:32:00,
2013-04-02 10:42:00,32.0,12.0,-100.00,ENE,72,0.0,0.0,41,0.00,,,-99.99,,2013-04-02 14:42:00,
2013-04-02 10:52:00,33.0,12.0,-100.00,ENE,70,0.0,0.0,41,0.00,,,-99.99,,2013-04-02 14:52:00,
2013-04-02 11:02:00,32.0,12.0,-100.00,ENE,72,0.0,0.0,42,0.00,,,-99.99,,2013-04-02 15:02:00,
2013-04-02 11:12:00,32.0,14.0,-100.00,ENE,72,0.0,0.0,45,0.00,,,-99.99,,2013-04-02 15:12:00,
2013-04-02 11:23:00,33.0,14.0,-100.00,ENE,70,0.0,0.0,44,0.00,,,-99.99,,2013-04-02 15:23:00,
2013-04-02 11:33:00,34.0,12.0,-100.00,ENE,72,0.0,0.0,40,0.00,,,-99.99,,2013-04-02 15:33:00,
2013-04-02 11:43:00,35.0,14.0,-100.00,ENE,72,0.0,0.0,41,0.00,,,-99.99,,2013-04-02 15:43:00,
2013-04-02 11:58:00,32.0,14.0,-100.00,ENE,72,0.0,0.0,45,0.00,,,-99.99,,2013-04-02 15:58:00,
2013-04-02 12:04:00,32.0,12.0,-100.00,ENE,72,0.0,0.0,42,0.00,,,-99.99,,2013-04-02 16:04:00,
2013-04-02 12:13:00,34.0,14.0,-100.00,ENE,70,0.0,0.0,40,0.00,,,-99.99,,2013-04-02 16:13:00,
2013-04-02 12:25:00,33.0,12.0,-100.00,ENE,70,0.0,0.0,41,0.00,,,-99.99,,2013-04-02 16:25:00,
2013-04-02 12:38:00,36.0,16.0,-100.00,ENE,72,0.0,0.0,41,0.00,,,-99.99,,2013-04-02 16:38:00,
2013-04-02 12:44:00,35.0,14.0,-100.00,ENE,70,0.0,0.0,38,0.00,,,-99.99,,2013-04-02 16:44:00,
2013-04-02 12:53:00,34.0,14.0,-100.00,ENE,72,0.0,0.0,42,0.00,,,-99.99,,2013-04-02 16:53:00,
2013-04-02 13:05:00,36.0,12.0,-100.00,ENE,72,0.0,0.0,36,0.00,,,-99.99,,2013-04-02 17:05:00,
2013-04-02 13:13:00,36.0,16.0,-100.00,ENE,72,0.0,0.0,40,0.00,,,-99.99,,2013-04-02 17:13:00,
2013-04-02 13:25:00,36.0,14.0,-100.00,ENE,72,0.0,0.0,37,0.00,,,-99.99,,2013-04-02 17:25:00,
2013-04-02 13:35:00,36.0,14.0,-100.00,ENE,70,0.0,0.0,37,0.00,,,-99.99,,2013-04-02 17:35:00,
2013-04-02 13:43:00,36.0,14.0,-100.00,ENE,70,0.0,0.0,37,0.00,,,-99.99,,2013-04-02 17:43:00,
2013-04-02 13:54:00,37.0,14.0,-100.00,ENE,70,0.0,0.0,36,0.00,,,-99.99,,2013-04-02 17:54:00,
2013-04-02 14:04:00,37.0,14.0,-100.00,ENE,70,0.0,0.0,36,0.00,,,-99.99,,2013-04-02 18:04:00,
2013-04-02 14:13:00,37.0,14.0,-100.00,ENE,72,0.0,0.0,37,0.00,,,-99.99,,2013-04-02 18:13:00,
2013-04-02 14:23:00,39.0,12.0,-100.00,ENE,70,0.0,0.0,32,0.00,,,-99.99,,2013-04-02 18:23:00,
2013-04-02 14:43:00,40.0,14.0,-100.00,ENE,72,0.0,0.0,32,0.00,,,-99.99,,2013-04-02 18:43:00,
2013-04-02 14:54:00,40.0,14.0,-100.00,ENE,70,0.0,0.0,32,0.00,,,-99.99,,2013-04-02 18:54:00,
2013-04-02 15:03:00,40.0,12.0,-100.00,ENE,72,0.0,0.0,32,0.00,,,-99.99,,2013-04-02 19:03:00,
2013-04-02 15:23:00,41.0,12.0,-100.00,ENE,70,0.0,0.0,29,0.00,,,-99.99,,2013-04-02 19:23:00,
2013-04-02 15:34:00,41.0,14.0,-100.00,ENE,70,0.0,0.0,31,0.00,,,-99.99,,2013-04-02 19:34:00,
2013-04-02 15:45:00,40.0,10.0,-100.00,ENE,70,0.0,0.0,28,0.00,,,-99.99,,2013-04-02 19:45:00,
2013-04-02 15:54:00,40.0,10.0,-100.00,ENE,70,0.0,0.0,29,0.00,,,-99.99,,2013-04-02 19:54:00,
2013-04-02 16:03:00,41.0,12.0,-100.00,ENE,70,0.0,0.0,29,0.00,,,-99.99,,2013-04-02 20:03:00,
2013-04-02 16:14:00,40.0,12.0,-100.00,ENE,70,0.0,0.0,31,0.00,,,-99.99,,2013-04-02 20:14:00,
2013-04-02 16:23:00,42.0,12.0,-100.00,ENE,70,0.0,0.0,28,0.00,,,-99.99,,2013-04-02 20:23:00,
2013-04-02 16:34:00,41.0,14.0,-100.00,ENE,70,0.0,0.0,31,0.00,,,-99.99,,2013-04-02 20:34:00,
2013-04-02 16:44:00,42.0,10.0,-100.00,ENE,70,0.0,0.0,27,0.00,,,-99.99,,2013-04-02 20:44:00,
2013-04-02 16:53:00,44.0,16.0,-100.00,ENE,70,0.0,0.0,31,0.00,,,-99.99,,2013-04-02 20:53:00,
2013-04-02 17:04:00,40.0,12.0,-100.00,ENE,70,0.0,0.0,31,0.00,,,-99.99,,2013-04-02 21:04:00,
2013-04-02 17:13:00,40.0,12.0,-100.00,ENE,70,0.0,0.0,31,0.00,,,-99.99,,2013-04-02 21:13:00,
2013-04-02 17:23:00,40.0,14.0,-100.00,ENE,70,0.0,0.0,32,0.00,,,-99.99,,2013-04-02 21:23:00,
2013-04-02 17:34:00,43.0,12.0,-100.00,ENE,70,0.0,0.0,27,0.00,,,-99.99,,2013-04-02 21:34:00,
2013-04-02 17:44:00,41.0,10.0,-100.00,ENE,70,0.0,0.0,27,0.00,,,-99.99,,2013-04-02 21:44:00,
2013-04-02 17:55:00,42.0,10.0,-100.00,ENE,70,0.0,0.0,27,0.00,,,-99.99,,2013-04-02 21:55:00,
2013-04-02 18:04:00,41.0,10.0,-100.00,ENE,70,0.0,0.0,27,0.00,,,-99.99,,2013-04-02 22:04:00,
2013-04-02 18:14:00,40.0,10.0,-100.00,ENE,70,0.0,0.0,27,0.00,,,-99.99,,2013-04-02 22:14:00,
2013-04-02 18:24:00,42.0,10.0,-100.00,ENE,70,0.0,0.0,25,0.00,,,-99.99,,2013-04-02 22:24:00,
2013-04-02 18:33:00,42.0,10.0,-100.00,ENE,70,0.0,0.0,27,0.00,,,-99.99,,2013-04-02 22:33:00,
2013-04-02 18:43:00,41.0,10.0,-100.00,ENE,70,0.0,0.0,27,0.00,,,-99.99,,2013-04-02 22:43:00,
2013-04-02 18:53:00,41.0,10.0,-100.00,ENE,70,0.0,0.0,27,0.00,,,-99.99,,2013-04-02 22:53:00,
2013-04-02 19:03:00,41.0,10.0,-100.00,ENE,70,0.0,0.0,27,0.00,,,-99.99,,2013-04-02 23:03:00,
2013-04-02 19:13:00,42.0,9.0,-100.00,ENE,70,0.0,0.0,25,0.00,,,-99.99,,2013-04-02 23:13:00,
2013-04-02 19:24:00,41.0,12.0,-100.00,ENE,72,0.0,0.0,28,0.00,,,-99.99,,2013-04-02 23:24:00,
2013-04-02 19:35:00,40.0,10.0,-100.00,ENE,70,0.0,0.0,28,0.00,,,-99.99,,2013-04-02 23:35:00,
2013-04-02 19:43:00,40.0,10.0,-100.00,ENE,70,0.0,0.0,27,0.00,,,-99.99,,2013-04-02 23:43:00,
2013-04-02 19:53:00,40.0,10.0,-100.00,ENE,70,0.0,0.0,29,0.00,,,-99.99,,2013-04-02 23:53:00,
2013-04-02 20:04:00,40.0,12.0,-100.00,ENE,70,0.0,0.0,31,0.00,,,-99.99,,2013-04-03 00:04:00,
2013-04-02 20:13:00,39.0,12.0,-100.00,ENE,72,0.0,0.0,32,0.00,,,-99.99,,2013-04-03 00:13:00,
2013-04-02 20:25:00,38.0,12.0,-100.00,ENE,72,0.0,0.0,32,0.00,,,-99.99,,2013-04-03 00:25:00,
2013-04-02 20:34:00,38.0,12.0,-100.00,ENE,72,0.0,0.0,33,0.00,,,-99.99,,2013-04-03 00:34:00,
2013-04-02 20:47:00,37.0,14.0,-100.00,ENE,72,0.0,0.0,36,0.00,,,-99.99,,2013-04-03 00:47:00,
2013-04-02 20:53:00,37.0,14.0,-100.00,ENE,72,0.0,0.0,37,0.00,,,-99.99,,2013-04-03 00:53:00,
2013-04-02 21:04:00,36.0,14.0,-100.00,ENE,72,0.0,0.0,37,0.00,,,-99.99,,2013-04-03 01:04:00,
2013-04-02 21:13:00,36.0,12.0,-100.00,ENE,72,0.0,0.0,37,0.00,,,-99.99,,2013-04-03 01:13:00,
2013-04-02 21:23:00,35.0,14.0,-100.00,ENE,72,0.0,0.0,38,0.00,,,-99.99,,2013-04-03 01:23:00,
2013-04-02 21:33:00,36.0,14.0,-100.00,ENE,72,0.0,0.0,38,0.00,,,-99.99,,2013-04-03 01:33:00,
2013-04-02 21:42:00,35.0,14.0,-100.00,ENE,72,0.0,0.0,40,0.00,,,-99.99,,2013-04-03 01:42:00,
2013-04-02 21:53:00,34.0,14.0,-100.00,ENE,72,0.0,0.0,40,0.00,,,-99.99,,2013-04-03 01:53:00,
2013-04-02 22:04:00,34.0,14.0,-100.00,ENE,72,0.0,0.0,40,0.00,,,-99.99,,2013-04-03 02:04:00,
2013-04-02 22:13:00,34.0,14.0,-100.00,ENE,70,0.0,0.0,41,0.00,,,-99.99,,2013-04-03 02:13:00,
2013-04-02 22:25:00,34.0,16.0,-100.00,ENE,72,0.0,0.0,45,0.00,,,-99.99,,2013-04-03 02:25:00,
2013-04-02 22:44:00,36.0,18.0,-100.00,ENE,72,0.0,0.0,46,0.00,,,-99.99,,2013-04-03 02:44:00,
2013-04-02 22:52:00,35.0,16.0,-100.00,ENE,72,0.0,0.0,45,0.00,,,-99.99,,2013-04-03 02:52:00,
2013-04-02 23:06:00,35.0,16.0,-100.00,ENE,72,0.0,0.0,44,0.00,,,-99.99,,2013-04-03 03:06:00,
2013-04-02 23:14:00,36.0,18.0,-100.00,ENE,72,0.0,0.0,44,0.00,,,-99.99,,2013-04-03 03:14:00,
2013-04-02 23:23:00,35.0,16.0,-100.00,ENE,72,0.0,0.0,45,0.00,,,-99.99,,2013-04-03 03:23:00,
2013-04-02 23:38:00,33.0,16.0,-100.00,ENE,72,0.0,0.0,46,0.00,,,-99.99,,2013-04-03 03:38:00,
2013-04-02 23:44:00,32.0,14.0,-100.00,ENE,72,0.0,0.0,45,0.00,,,-99.99,,2013-04-03 03:44:00,
2013-04-02 23:53:00,32.0,14.0,-100.00,ENE,72,0.0,0.0,44,0.00,,,-99.99,,2013-04-03 03:53:00,